User: anonymous   Login
Location: *
(35.2348°S, 91.3916°E)
Time: 12:58:36
(UTC+00:00)
Language:

NOAA 11 - Orbit

View from above orbital plane
View from above orbital plane
View from above satellite
View from above satellite

Ground track
Ground track

The orbit data is extracted from the following two-line orbital elements,

1 19531U 88089A   19339.82712420 -.00000018 +00000-0 +11855-4 0  9997
2 19531 098.4312 005.0279 0010550 329.6750 030.3813 14.15248414610036
Epoch (UTC): 05 December 2019 19:51:03
Eccentricity: 0.0010550
inclination: 98.4312°
perigee height: 834 km
apogee height: 849 km
right ascension of ascending node: 5.0279°
argument of perigee: 329.6750°
revolutions per day: 14.15248414
mean anomaly at epoch: 30.3813°
orbit number at epoch: 61003

The dashed part of the orbit path shows where the satellite is in the earth's shadow,  

DLR